TimeCDT,TemperatureF,Dew PointF,Humidity,Sea Level PressureIn,VisibilityMPH,Wind Direction,Wind SpeedMPH,Gust SpeedMPH,PrecipitationIn,Events,Conditions,WindDirDegrees,DateUTC
12:47 AM,60.8,60.8,100,29.87,1.5,Calm,Calm,-,N/A,,Clear,0,2013-05-16 05:47:00
12:51 AM,60.8,60.8,100,29.87,0.5,Calm,Calm,-,N/A,Fog,Fog,0,2013-05-16 05:51:00
12:53 AM,60.1,59.0,96,29.85,0.5,Calm,Calm,-,N/A,Fog,Fog,0,2013-05-16 05:53:00
1:00 AM,59.0,57.2,94,29.87,0.5,Calm,Calm,-,N/A,Fog,Fog,0,2013-05-16 06:00:00
1:05 AM,60.8,59.0,94,29.87,1.0,NE,3.5,-,N/A,,Clear,40,2013-05-16 06:05:00
1:11 AM,60.8,60.8,100,29.88,3.0,NE,3.5,-,N/A,,Clear,40,2013-05-16 06:11:00
1:53 AM,62.1,61.0,96,29.84,5.0,NE,4.6,-,N/A,,Clear,50,2013-05-16 06:53:00
2:53 AM,61.0,60.1,97,29.86,3.0,East,3.5,-,N/A,,Clear,90,2013-05-16 07:53:00
3:01 AM,60.8,60.8,100,29.87,2.5,East,4.6,-,N/A,,Partly Cloudy,80,2013-05-16 08:01:00
3:12 AM,60.8,60.8,100,29.88,3.0,ENE,3.5,-,N/A,,Scattered Clouds,60,2013-05-16 08:12:00
3:53 AM,61.0,60.1,97,29.85,3.0,East,3.5,-,N/A,,Overcast,80,2013-05-16 08:53:00
4:53 AM,61.0,60.1,97,29.86,4.0,ESE,4.6,-,N/A,,Overcast,110,2013-05-16 09:53:00
5:53 AM,63.0,61.0,93,29.86,8.0,East,4.6,-,N/A,,Overcast,100,2013-05-16 10:53:00
6:53 AM,63.0,61.0,93,29.86,9.0,ESE,8.1,-,N/A,,Overcast,110,2013-05-16 11:53:00
7:53 AM,64.0,61.0,90,29.88,10.0,ESE,6.9,-,N/A,,Overcast,120,2013-05-16 12:53:00
8:50 AM,64.4,60.8,88,29.91,10.0,SE,8.1,-,N/A,,Overcast,140,2013-05-16 13:50:00
8:53 AM,64.9,61.0,87,29.89,10.0,SE,6.9,-,N/A,,Overcast,140,2013-05-16 13:53:00
9:53 AM,66.9,61.0,81,29.88,10.0,SSE,8.1,-,N/A,,Mostly Cloudy,160,2013-05-16 14:53:00
10:50 AM,66.2,60.8,83,29.90,10.0,SSE,8.1,-,N/A,,Overcast,150,2013-05-16 15:50:00
10:53 AM,66.9,61.0,81,29.88,10.0,SE,5.8,-,N/A,,Overcast,140,2013-05-16 15:53:00
11:02 AM,66.2,60.8,83,29.90,10.0,SE,6.9,-,N/A,,Overcast,130,2013-05-16 16:02:00
11:53 AM,68.0,62.1,81,29.87,10.0,SE,5.8,-,N/A,,Overcast,140,2013-05-16 16:53:00
12:53 PM,69.1,61.0,75,29.86,10.0,SSE,9.2,-,N/A,,Overcast,150,2013-05-16 17:53:00
1:53 PM,71.6,62.6,73,29.88,10.0,SE,9.2,-,N/A,,Mostly Cloudy,140,2013-05-16 18:53:00
2:53 PM,72.0,62.1,71,29.85,10.0,South,6.9,-,N/A,,Overcast,170,2013-05-16 19:53:00
3:53 PM,68.0,63.0,84,29.84,10.0,ESE,10.4,-,N/A,,Overcast,120,2013-05-16 20:53:00
4:53 PM,69.8,62.6,78,29.85,10.0,East,9.2,-,N/A,,Mostly Cloudy,90,2013-05-16 21:53:00
5:53 PM,68.0,62.1,81,29.82,10.0,ESE,9.2,-,N/A,,Mostly Cloudy,120,2013-05-16 22:53:00
6:53 PM,68.0,62.1,81,29.82,10.0,SE,5.8,-,N/A,,Scattered Clouds,140,2013-05-16 23:53:00
7:53 PM,66.0,62.1,87,29.83,10.0,Calm,Calm,-,N/A,,Mostly Cloudy,0,2013-05-17 00:53:00
8:53 PM,66.0,62.1,87,29.83,10.0,ESE,5.8,-,N/A,,Overcast,120,2013-05-17 01:53:00
9:53 PM,66.0,62.1,87,29.86,10.0,ESE,5.8,-,N/A,,Overcast,120,2013-05-17 02:53:00
10:37 PM,64.4,60.8,88,29.88,10.0,ESE,5.8,-,N/A,,Partly Cloudy,110,2013-05-17 03:37:00
10:53 PM,63.0,60.1,90,29.87,10.0,ESE,6.9,-,N/A,,Clear,120,2013-05-17 03:53:00
11:53 PM,62.1,60.1,93,29.88,10.0,ESE,3.5,-,N/A,,Mostly Cloudy,110,2013-05-17 04:53:00